DLH7PJ EDDH-ESSA

Flight info

Callsign DLH7PJ
Flight time 1h 11m
Altitude 35000
Route LUGEG3G LUGEG P605 MEGAR DCT BEDOS N851 PELUP Z226 NILUG NILUG3M
Aircraft 321/M-V/N

Departure

Time 2026-04-25 12:00
Airport Hamburg Helmut Schmidt Airport (EDDH)

Arrival

Time 2026-04-25 13:11
Airport Stockholm-Arlanda Airport (ESSA)
Time Latitude Longitude Altitude Speed Heading
2026-04-25 11:37 53.63246 10.00355 46 ft 0 kts 85°
2026-04-25 11:51 53.63246 10.00328 46 ft 2 kts 92°
2026-04-25 11:51 53.63245 10.00300 46 ft 2 kts 95°
2026-04-25 11:51 53.63250 10.00274 45 ft 2 kts 126°
2026-04-25 11:52 53.63261 10.00253 43 ft 2 kts 146°
2026-04-25 11:52 53.63274 10.00241 46 ft 1 kts 167°
2026-04-25 11:52 53.63278 10.00239 46 ft 0 kts 175°
2026-04-25 11:54 53.63274 10.00239 46 ft 2 kts 175°
2026-04-25 11:54 53.63196 10.00251 45 ft 9 kts 175°
2026-04-25 11:55 53.63125 10.00261 45 ft 11 kts 175°
2026-04-25 11:55 53.63042 10.00235 45 ft 13 kts 209°
2026-04-25 11:55 53.62959 10.00146 44 ft 15 kts 212°
2026-04-25 11:55 53.62879 10.00055 44 ft 13 kts 220°
2026-04-25 11:56 53.62846 9.99965 46 ft 2 kts 242°
2026-04-25 11:56 53.62843 9.99958 47 ft 0 kts 242°
2026-04-25 11:57 53.62841 9.99952 47 ft 3 kts 242°
2026-04-25 11:58 53.62821 9.99888 48 ft 8 kts 243°
2026-04-25 11:58 53.62816 9.99797 47 ft 8 kts 301°
2026-04-25 11:58 53.62848 9.99760 47 ft 0 kts 330°
2026-04-25 11:59 53.62987 9.99632 46 ft 58 kts 332°
2026-04-25 12:00 53.64475 9.98370 111 ft 166 kts 330°
2026-04-25 12:00 53.65519 9.97523 780 ft 167 kts 330°
2026-04-25 12:00 53.67528 9.95826 2365 ft 161 kts 326°
2026-04-25 12:01 53.68569 9.94959 2796 ft 177 kts 334°
2026-04-25 12:01 53.69877 9.94613 3064 ft 201 kts 353°
2026-04-25 12:01 53.71298 9.94636 3563 ft 206 kts 353°
2026-04-25 12:01 53.72747 9.95116 4035 ft 229 kts 18°
2026-04-25 12:02 53.75197 9.99524 4844 ft 277 kts 45°
2026-04-25 12:02 53.76365 10.02161 5468 ft 283 kts 45°
2026-04-25 12:02 53.77550 10.04865 6127 ft 287 kts 45°
2026-04-25 12:03 53.78748 10.07591 6769 ft 290 kts 45°
2026-04-25 12:03 53.79947 10.10309 7399 ft 293 kts 45°
2026-04-25 12:03 53.81176 10.13089 8040 ft 296 kts 45°
2026-04-25 12:03 53.82422 10.15901 8729 ft 298 kts 44°
2026-04-25 12:04 53.83662 10.18690 9363 ft 301 kts 44°
2026-04-25 12:04 53.84930 10.21540 10016 ft 304 kts 44°
2026-04-25 12:04 53.86234 10.24458 10325 ft 320 kts 44°
2026-04-25 12:04 53.87634 10.27563 10443 ft 340 kts 44°
2026-04-25 12:05 53.89109 10.30852 10568 ft 359 kts 45°
2026-04-25 12:05 53.90617 10.34243 10903 ft 368 kts 45°
2026-04-25 12:05 53.92166 10.37765 11418 ft 373 kts 46°
2026-04-25 12:05 53.93719 10.41318 11943 ft 376 kts 46°
2026-04-25 12:06 53.95293 10.44921 12477 ft 380 kts 46°
2026-04-25 12:06 53.96859 10.48497 12997 ft 383 kts 46°
2026-04-25 12:06 53.98458 10.52148 13552 ft 387 kts 46°
2026-04-25 12:06 54.00078 10.55841 14051 ft 390 kts 46°
2026-04-25 12:07 54.01713 10.59566 14517 ft 394 kts 46°
2026-04-25 12:07 54.03358 10.63320 15021 ft 397 kts 46°
2026-04-25 12:07 54.05011 10.67107 15508 ft 399 kts 46°
2026-04-25 12:07 54.06670 10.70915 16002 ft 401 kts 46°
2026-04-25 12:08 54.08317 10.74698 16484 ft 404 kts 46°
2026-04-25 12:08 54.10004 10.78574 16972 ft 406 kts 46°
2026-04-25 12:08 54.11693 10.82459 17450 ft 408 kts 46°
2026-04-25 12:08 54.13370 10.86330 17921 ft 411 kts 46°
2026-04-25 12:09 54.15075 10.90276 18354 ft 413 kts 46°
2026-04-25 12:09 54.16793 10.94253 18743 ft 415 kts 46°
2026-04-25 12:09 54.18515 10.98246 19122 ft 418 kts 47°
2026-04-25 12:09 54.20227 11.02232 19505 ft 420 kts 47°
2026-04-25 12:10 54.21972 11.06294 19899 ft 422 kts 47°
2026-04-25 12:10 54.23692 11.10302 20262 ft 424 kts 47°
2026-04-25 12:10 54.25492 11.14498 20640 ft 428 kts 46°
2026-04-25 12:10 54.27215 11.18519 20973 ft 430 kts 46°
2026-04-25 12:11 54.28998 11.22693 21337 ft 433 kts 47°
2026-04-25 12:11 54.30761 11.26819 21707 ft 435 kts 47°
2026-04-25 12:11 54.32551 11.31015 22142 ft 435 kts 47°
2026-04-25 12:11 54.34337 11.35213 22587 ft 435 kts 47°
2026-04-25 12:12 54.36119 11.39414 23050 ft 434 kts 47°
2026-04-25 12:12 54.37298 11.42196 23348 ft 434 kts 47°
2026-04-25 12:12 54.39651 11.47764 23914 ft 433 kts 47°
2026-04-25 12:12 54.41419 11.51954 24303 ft 432 kts 47°
2026-04-25 12:13 54.43183 11.56141 24701 ft 431 kts 47°
2026-04-25 12:13 54.44955 11.60313 25119 ft 428 kts 44°
2026-04-25 12:13 54.46892 11.64036 25561 ft 417 kts 35°
2026-04-25 12:13 54.49076 11.67231 25983 ft 407 kts 27°
2026-04-25 12:14 54.51413 11.69895 26405 ft 400 kts 23°
2026-04-25 12:14 54.53754 11.72462 26840 ft 397 kts 23°
2026-04-25 12:14 54.56084 11.75028 27301 ft 395 kts 23°
2026-04-25 12:14 54.58389 11.77579 27734 ft 392 kts 23°
2026-04-25 12:15 54.60683 11.80123 28086 ft 392 kts 23°
2026-04-25 12:15 54.62961 11.82645 28357 ft 394 kts 23°
2026-04-25 12:15 54.65277 11.85208 28633 ft 395 kts 23°
2026-04-25 12:15 54.67602 11.87787 28893 ft 398 kts 23°
2026-04-25 12:16 54.71549 11.92173 28957 ft 412 kts 22°
2026-04-25 12:16 54.74795 11.95792 29060 ft 421 kts 23°
2026-04-25 12:16 54.77273 11.98572 29203 ft 426 kts 23°
2026-04-25 12:17 54.81454 12.03276 29444 ft 434 kts 23°
2026-04-25 12:17 54.84005 12.06146 29589 ft 438 kts 23°
2026-04-25 12:17 54.86585 12.09049 29728 ft 442 kts 23°
2026-04-25 12:18 54.89146 12.11928 29872 ft 446 kts 24°
2026-04-25 12:18 54.91770 12.14877 30074 ft 450 kts 23°
2026-04-25 12:18 54.94415 12.17861 30198 ft 454 kts 23°
2026-04-25 12:18 54.97082 12.20874 30310 ft 457 kts 23°
2026-04-25 12:19 55.02411 12.26932 30694 ft 459 kts 23°
2026-04-25 12:19 55.05113 12.30024 30946 ft 458 kts 23°
2026-04-25 12:19 55.07748 12.33037 31190 ft 457 kts 23°
2026-04-25 12:20 55.10413 12.36086 31446 ft 456 kts 23°
2026-04-25 12:20 55.13075 12.39135 31693 ft 455 kts 23°
2026-04-25 12:20 55.15728 12.42174 31999 ft 454 kts 23°
2026-04-25 12:20 55.18371 12.45204 32265 ft 453 kts 22°
2026-04-25 12:21 55.21001 12.48227 32527 ft 452 kts 22°
2026-04-25 12:21 55.23603 12.51220 32788 ft 450 kts 22°
2026-04-25 12:21 55.26227 12.54244 33055 ft 449 kts 22°
2026-04-25 12:21 55.28835 12.57256 33333 ft 447 kts 22°
2026-04-25 12:22 55.31408 12.60229 33603 ft 446 kts 22°
2026-04-25 12:22 55.33995 12.63225 33869 ft 444 kts 22°
2026-04-25 12:22 55.36578 12.66222 34106 ft 443 kts 22°
2026-04-25 12:22 55.39151 12.69219 34342 ft 441 kts 23°
2026-04-25 12:23 55.41687 12.72178 34586 ft 440 kts 23°
2026-04-25 12:23 55.44237 12.75154 34781 ft 439 kts 23°
2026-04-25 12:23 55.46799 12.78142 34837 ft 442 kts 23°
2026-04-25 12:24 55.51962 12.84165 34839 ft 446 kts 23°
2026-04-25 12:24 55.57150 12.90250 34859 ft 447 kts 23°
2026-04-25 12:25 55.62331 12.96351 34906 ft 448 kts 24°
2026-04-25 12:25 55.67529 13.02492 34850 ft 452 kts 24°
2026-04-25 12:26 55.72748 13.08679 34852 ft 453 kts 24°
2026-04-25 12:26 55.77984 13.14924 34831 ft 453 kts 24°
2026-04-25 12:27 55.83230 13.21183 34826 ft 453 kts 24°
2026-04-25 12:27 55.88457 13.27415 34817 ft 455 kts 24°
2026-04-25 12:28 55.93724 13.33729 34796 ft 454 kts 24°
2026-04-25 12:28 55.98957 13.40034 34800 ft 456 kts 24°
2026-04-25 12:29 56.04231 13.46424 34806 ft 457 kts 24°
2026-04-25 12:29 56.09495 13.52816 34810 ft 457 kts 24°
2026-04-25 12:30 56.14768 13.59231 34790 ft 459 kts 25°
2026-04-25 12:30 56.20023 13.65662 34771 ft 460 kts 25°
2026-04-25 12:31 56.25327 13.72164 34762 ft 461 kts 25°
2026-04-25 12:31 56.30654 13.78710 34746 ft 467 kts 25°
2026-04-25 12:32 56.36037 13.85333 34750 ft 475 kts 26°
2026-04-25 12:32 56.41508 13.92099 34734 ft 479 kts 26°
2026-04-25 12:33 56.47027 13.98976 34722 ft 482 kts 26°
2026-04-25 12:33 56.52531 14.05848 34712 ft 483 kts 26°
2026-04-25 12:34 56.58087 14.12800 34772 ft 484 kts 27°
2026-04-25 12:34 56.63628 14.19759 34695 ft 483 kts 27°
2026-04-25 12:35 56.69142 14.26705 34687 ft 484 kts 27°
2026-04-25 12:35 56.74690 14.33732 34699 ft 485 kts 27°
2026-04-25 12:36 56.80217 14.40760 34708 ft 486 kts 27°
2026-04-25 12:36 56.85767 14.47844 34689 ft 484 kts 28°
2026-04-25 12:37 56.91304 14.54910 34692 ft 485 kts 28°
2026-04-25 12:37 56.96814 14.61986 34665 ft 486 kts 28°
2026-04-25 12:38 57.02341 14.69112 34680 ft 487 kts 28°
2026-04-25 12:38 57.07911 14.76315 34670 ft 487 kts 28°
2026-04-25 12:39 57.13421 14.83472 34660 ft 486 kts 28°
2026-04-25 12:39 57.18946 14.90668 34665 ft 487 kts 28°
2026-04-25 12:40 57.24458 14.97892 34670 ft 488 kts 29°
2026-04-25 12:40 57.30008 15.05187 34746 ft 488 kts 29°
2026-04-25 12:40 57.32783 15.08839 34642 ft 488 kts 29°
2026-04-25 12:41 57.35549 15.12494 34639 ft 487 kts 29°
2026-04-25 12:41 57.40984 15.19957 34644 ft 490 kts 31°
2026-04-25 12:42 57.46387 15.27755 34637 ft 492 kts 32°
2026-04-25 12:42 57.51760 15.35577 34649 ft 492 kts 31°
2026-04-25 12:43 57.57162 15.43360 34652 ft 492 kts 31°
2026-04-25 12:43 57.65325 15.55091 34651 ft 493 kts 31°
2026-04-25 12:44 57.70725 15.62908 34652 ft 494 kts 32°
2026-04-25 12:45 57.78879 15.74820 34652 ft 494 kts 32°
2026-04-25 12:45 57.86995 15.86725 34655 ft 495 kts 32°
2026-04-25 12:46 57.92392 15.94690 34657 ft 495 kts 32°
2026-04-25 12:46 57.97815 16.02716 34652 ft 493 kts 32°
2026-04-25 12:47 58.00492 16.06701 34617 ft 481 kts 32°
2026-04-25 12:47 58.03102 16.10594 34281 ft 475 kts 32°
2026-04-25 12:47 58.05676 16.14428 33750 ft 473 kts 32°
2026-04-25 12:47 58.08260 16.18276 33026 ft 474 kts 32°
2026-04-25 12:48 58.10865 16.22158 32260 ft 474 kts 32°
2026-04-25 12:48 58.13454 16.26031 31709 ft 471 kts 32°
2026-04-25 12:48 58.15991 16.29836 31177 ft 468 kts 31°
2026-04-25 12:48 58.18578 16.33559 30648 ft 463 kts 29°
2026-04-25 12:49 58.21160 16.37055 30131 ft 459 kts 27°
2026-04-25 12:49 58.23790 16.40477 29575 ft 455 kts 26°
2026-04-25 12:49 58.26408 16.43832 29008 ft 452 kts 27°
2026-04-25 12:49 58.29027 16.47197 28062 ft 456 kts 27°
2026-04-25 12:50 58.31647 16.50615 27380 ft 454 kts 27°
2026-04-25 12:50 58.34238 16.54056 26784 ft 451 kts 28°
2026-04-25 12:50 58.36788 16.57484 26194 ft 447 kts 28°
2026-04-25 12:50 58.39289 16.60865 25656 ft 443 kts 28°
2026-04-25 12:51 58.41797 16.64264 25095 ft 439 kts 28°
2026-04-25 12:51 58.44283 16.67630 24545 ft 435 kts 27°
2026-04-25 12:51 58.46746 16.70961 23999 ft 432 kts 27°
2026-04-25 12:51 58.49198 16.74271 23470 ft 428 kts 27°
2026-04-25 12:52 58.51591 16.77503 23007 ft 424 kts 27°
2026-04-25 12:52 58.53986 16.80747 22426 ft 419 kts 28°
2026-04-25 12:52 58.56349 16.83957 21857 ft 414 kts 28°
2026-04-25 12:52 58.58695 16.87146 21301 ft 410 kts 28°
2026-04-25 12:53 58.61019 16.90314 20766 ft 405 kts 28°
2026-04-25 12:53 58.63273 16.93393 20241 ft 401 kts 28°
2026-04-25 12:53 58.65531 16.96485 19723 ft 396 kts 28°
2026-04-25 12:53 58.67773 16.99556 19206 ft 392 kts 28°
2026-04-25 12:54 58.69987 17.02595 18705 ft 388 kts 29°
2026-04-25 12:54 58.72175 17.05602 18211 ft 384 kts 29°
2026-04-25 12:54 58.74337 17.08571 17691 ft 380 kts 29°
2026-04-25 12:54 58.76459 17.11490 17203 ft 375 kts 29°
2026-04-25 12:55 58.78562 17.14396 16664 ft 370 kts 29°
2026-04-25 12:55 58.79272 17.15380 16478 ft 368 kts 29°
2026-04-25 12:55 58.82709 17.20146 15545 ft 363 kts 29°
2026-04-25 12:55 58.84735 17.22952 15006 ft 359 kts 29°
2026-04-25 12:56 58.86766 17.25767 14449 ft 356 kts 29°
2026-04-25 12:56 58.88777 17.28563 13918 ft 353 kts 29°
2026-04-25 12:56 58.90771 17.31334 13389 ft 350 kts 30°
2026-04-25 12:56 58.92720 17.34049 12828 ft 347 kts 30°
2026-04-25 12:57 58.94676 17.36780 12272 ft 343 kts 30°
2026-04-25 12:57 58.96596 17.39472 11747 ft 339 kts 30°
2026-04-25 12:57 58.98497 17.42139 11244 ft 335 kts 30°
2026-04-25 12:57 59.00358 17.44751 10752 ft 332 kts 30°
2026-04-25 12:58 59.02199 17.47339 10565 ft 319 kts 30°
2026-04-25 12:58 59.03943 17.49805 10577 ft 300 kts 30°
2026-04-25 12:58 59.05586 17.52133 10573 ft 283 kts 30°
2026-04-25 12:58 59.06635 17.53612 10583 ft 283 kts 30°
2026-04-25 12:59 59.08230 17.55851 10586 ft 276 kts 29°
2026-04-25 12:59 59.09760 17.58011 10493 ft 267 kts 29°
2026-04-25 12:59 59.11258 17.60122 10196 ft 264 kts 29°
2026-04-25 12:59 59.12727 17.62195 9887 ft 261 kts 29°
2026-04-25 13:00 59.14171 17.64242 9362 ft 254 kts 30°
2026-04-25 13:00 59.15102 17.65568 9037 ft 246 kts 29°
2026-04-25 13:00 59.16933 17.68173 8284 ft 237 kts 30°
2026-04-25 13:00 59.18243 17.69878 7841 ft 221 kts 17°
2026-04-25 13:01 59.19645 17.70992 7306 ft 215 kts 15°
2026-04-25 13:01 59.21025 17.72073 6753 ft 212 kts 17°
2026-04-25 13:01 59.22386 17.73143 6336 ft 209 kts 17°
2026-04-25 13:01 59.23728 17.74194 5909 ft 206 kts 16°
2026-04-25 13:02 59.25063 17.75239 5526 ft 204 kts 16°
2026-04-25 13:02 59.26358 17.76255 5244 ft 200 kts 17°
2026-04-25 13:02 59.27651 17.77270 4841 ft 200 kts 16°
2026-04-25 13:02 59.28955 17.78286 4440 ft 201 kts 16°
2026-04-25 13:03 59.30237 17.79288 4128 ft 197 kts 18°
2026-04-25 13:03 59.31478 17.80262 3927 ft 192 kts 17°
2026-04-25 13:03 59.32724 17.81240 3950 ft 194 kts 17°
2026-04-25 13:03 59.33984 17.82229 3949 ft 196 kts 18°
2026-04-25 13:04 59.35248 17.83224 3947 ft 195 kts 17°
2026-04-25 13:04 59.36506 17.84215 3952 ft 194 kts 16°
2026-04-25 13:04 59.37740 17.85187 3945 ft 194 kts 17°
2026-04-25 13:04 59.38993 17.86170 3946 ft 194 kts 16°
2026-04-25 13:05 59.40289 17.86927 3948 ft 193 kts
2026-04-25 13:05 59.41587 17.87474 3944 ft 185 kts
2026-04-25 13:05 59.42789 17.87925 3951 ft 170 kts
2026-04-25 13:05 59.43954 17.88345 3925 ft 171 kts
2026-04-25 13:06 59.45114 17.88761 3750 ft 170 kts
2026-04-25 13:06 59.46269 17.89176 3551 ft 162 kts
2026-04-25 13:06 59.47310 17.89552 3331 ft 145 kts
2026-04-25 13:06 59.48267 17.89895 3140 ft 139 kts
2026-04-25 13:07 59.49203 17.90230 2961 ft 136 kts
2026-04-25 13:07 59.50143 17.90567 2790 ft 135 kts
2026-04-25 13:07 59.51076 17.90902 2592 ft 136 kts
2026-04-25 13:07 59.51999 17.91234 2408 ft 133 kts
2026-04-25 13:08 59.52913 17.91562 2227 ft 137 kts
2026-04-25 13:08 59.53837 17.91895 2032 ft 133 kts
2026-04-25 13:08 59.54755 17.92226 1845 ft 134 kts
2026-04-25 13:08 59.55682 17.92560 1660 ft 134 kts
2026-04-25 13:09 59.56604 17.92892 1466 ft 133 kts
2026-04-25 13:09 59.57503 17.93217 1286 ft 132 kts
2026-04-25 13:09 59.58419 17.93547 1079 ft 136 kts
2026-04-25 13:09 59.59337 17.93879 873 ft 132 kts
2026-04-25 13:10 59.60241 17.94206 686 ft 134 kts
2026-04-25 13:10 59.61161 17.94538 500 ft 134 kts
2026-04-25 13:10 59.62073 17.94882 313 ft 133 kts
2026-04-25 13:10 59.62964 17.95206 166 ft 123 kts
2026-04-25 13:11 59.63703 17.95458 145 ft 86 kts
2026-04-25 13:11 59.64147 17.95613 145 ft 51 kts 10°
2026-04-25 13:11 59.64448 17.95698 144 ft 36 kts 358°
2026-04-25 13:11 59.64622 17.95608 139 ft 19 kts 340°
2026-04-25 13:12 59.64694 17.95554 138 ft 5 kts 338°
2026-04-25 13:12 59.64726 17.95528 138 ft 5 kts 338°
2026-04-25 13:12 59.64765 17.95499 138 ft 7 kts 340°
2026-04-25 13:12 59.64799 17.95476 138 ft 10 kts 344°
2026-04-25 13:13 59.64927 17.95487 138 ft 16 kts
2026-04-25 13:13 59.65036 17.95512 138 ft 16 kts 353°
2026-04-25 13:13 59.65144 17.95461 138 ft 16 kts 345°
2026-04-25 13:13 59.65253 17.95403 138 ft 16 kts 344°
2026-04-25 13:14 59.65364 17.95345 138 ft 16 kts 346°
2026-04-25 13:14 59.65477 17.95288 138 ft 17 kts 345°
2026-04-25 13:14 59.65583 17.95233 138 ft 12 kts 343°
2026-04-25 13:14 59.65656 17.95192 138 ft 11 kts 345°
2026-04-25 13:15 59.65696 17.95170 138 ft 0 kts 345°
2026-04-25 13:15 59.65697 17.95170 138 ft 0 kts 345°
2026-04-25 13:17 59.65700 17.95168 138 ft 1 kts 345°
2026-04-25 13:17 59.65717 17.95154 138 ft 5 kts 332°
2026-04-25 13:18 59.65751 17.95037 138 ft 14 kts 275°
2026-04-25 13:18 59.65726 17.94811 138 ft 19 kts 256°
2026-04-25 13:18 59.65691 17.94531 138 ft 23 kts 256°
2026-04-25 13:18 59.65646 17.94215 138 ft 25 kts 256°
2026-04-25 13:19 59.65606 17.93873 138 ft 25 kts 257°
2026-04-25 13:19 59.65565 17.93552 138 ft 23 kts 255°
2026-04-25 13:19 59.65531 17.93284 138 ft 15 kts 256°
2026-04-25 13:19 59.65501 17.93194 138 ft 9 kts 189°
2026-04-25 13:20 59.65439 17.93158 138 ft 6 kts 234°
2026-04-25 13:20 59.65429 17.93093 137 ft 4 kts 259°
2026-04-25 13:20 59.65424 17.93057 137 ft 1 kts 244°
2026-04-25 13:20 59.65418 17.93052 137 ft 1 kts 214°
2026-04-25 13:21 59.65398 17.93041 137 ft 4 kts 191°
2026-04-25 13:21 59.65391 17.93039 137 ft 0 kts 189°